Вернуться в каталог

MIDAS 3 DEB

АктивенPO
NORAD 188·DEBRIS·🇺🇸 United States

Запущен Jul 12, 1961 с Vandenberg Space Force Base

Loading…

Ближайшие Пролёты (ближайшие 24 часа)

TLE

УстаревающийSource: Space-Track

Эпоха: Sep 1, 2026, 08:48 UTC

1 00188U 61018C   26244.36701767  .00000009  00000-0  26634-2 0  9990
2 00188  91.1265 211.3529 0111048 299.5180  59.4659  8.93822413125001

Отслеживайте MIDAS 3 DEB в реальном времени с AllMySat

Download on the App Store